Find Starlink 5786

NORAD ID: 56032 Int'l Des: 2023-042 Owner: SPXS Country: US Constellation: starlink operational
LEOCIRCULAR

現在のビュー

3D地球を読み込み中...

Starlink 5786について

説明を読み込み中...

次回通過

Passes for default location (London). Set your location on the main map for personalized predictions.

高度履歴

Loading altitude history...

軌道要素

1 56032U 23042AY 26145.97535810 .00000925 00000-0 43135-4 0 9999
2 56032 43.0034 328.8979 0001541 268.4373 91.6303 15.27577386174850
Epoch: May 25, 2026 • Age: 18 hours

現在のステータス

高度 482.6 km
速度 7.63 km/s
衛星直下点 3.66°N, 5.02°W
打ち上げ日 Mar 24, 2023
運用期間 3.1 years
タイプ internet

技術仕様

分類 Payload
質量 305.00 kg
乾燥質量 290.00 kg
総質量 305.00 kg
長さ 0.20 m
直径 2.80 m
スパン 9.00 m
形状 Box + pan
製造者 SPXS
バスタイプ Starlink
フェーズステータス In Orbit
所有者/国 SPXS/US

Most Searched